Location: Penticton
(49.5000°N, 119.5830°W)
Time: 00:08:23
(UTC-07:00)

Daily predictions for brighter satellites

Satellite Brightness Start Highest point End
(mag) Time Altitude Azimuth Time Altitude Azimuth Time Altitude Azimuth
CENTAUR R/B 3.9 00:09:21 38° NNW 00:09:21 38° NNW 00:15:36 10° NE
SL-16 R/B 4.5 00:15:58 10° N 00:18:33 19° NNE 00:18:33 19° NNE
CZ-4C R/B 4.3 00:25:08 10° NW 00:30:32 27° NNE 00:33:22 21° NE
Cosmos 2322 Rocket 4.4 00:42:05 10° NNW 00:44:20 21° N 00:44:20 21° N
ATLAS 3B R/B 4.0 01:01:21 10° NW 01:06:36 37° N 01:06:36 37° N
ATLAS 5 CENTAUR R/B 4.5 01:09:19 20° N 01:09:37 20° N 01:13:51 10° NE
Cosmos 2360 Rocket 4.3 01:34:21 10° NNW 01:36:58 23° N 01:36:58 23° N
SL-16 R/B 4.2 02:02:59 25° ENE 02:04:10 27° ENE 02:09:16 10° N
CZ-4C R/B 3.7 02:13:51 10° NW 02:26:04 19° ESE 02:27:58 10° ESE
Resurs 1-4 Rocket 4.5 02:21:08 10° NE 02:24:02 16° E 02:24:02 16° E
NOSS 3-1 (C) 4.4 02:29:06 46° NNE 02:29:06 46° NNE 02:33:55 10° NE
NOSS 3-1 (A) 4.3 02:32:52 47° NNE 02:32:52 47° NNE 02:37:42 10° NE
COSMOS 2428 4.1 02:27:48 10° NNW 02:32:11 35° NNE 02:32:11 35° NNE
Cosmos 2082 Rocket 4.0 02:43:40 24° NNW 02:43:40 24° NNW 02:46:49 10° NNE
ATLAS 2AS CENTAUR R/B 3.3 02:47:45 60° ESE 02:47:45 60° ESE 02:55:14 10° NE
ATLAS 5 CENTAUR R/B 3.8 02:50:57 11° NW 02:55:59 33° NNE 03:01:33 10° E
NOSS 3-2 (A) 4.5 03:05:49 10° NW 03:12:54 55° NE 03:20:38 10° ESE
Nadezhda 3 Rocket 4.3 03:24:08 60° ESE 03:24:38 62° E 03:30:50 10° NNE
Cosmos 2219 Rocket 3.1 03:19:20 10° NNW 03:24:49 46° NE 03:30:17 10° SE
ADEOS 4.1 03:26:07 10° NNE 03:30:15 57° NNE 03:30:15 57° NNE
CZ-2D R/B 2.7 03:27:04 10° NNE 03:32:06 51° E 03:32:06 51° E
Lacrosse 5 rocket 3.2 03:37:11 30° E 03:37:11 30° E 03:40:01 10° ENE
Cosmos 2344 4.5 03:36:25 31° SSE 03:39:27 43° ESE 03:47:33 10° NE
ARIANE 5 R/B 2.8 03:36:15 10° NNE 03:40:47 65° NE 03:40:47 65° NE
NOSS 2-3 (C) 4.2 03:46:01 74° E 03:46:01 74° E 03:51:35 10° NE
SL-16 R/B 2.6 03:48:05 63° WNW 03:48:05 63° WNW 03:53:36 10° NNW
Cosmos 304 Rocket 4.2 03:43:45 10° NNW 03:48:22 60° NE 03:48:22 60° NE
NOSS 3-2 (C) 4.2 03:42:27 10° NW 03:49:42 68° NE 03:57:37 10° SE
ERS-2 4.0 03:47:46 10° NNE 03:49:42 29° NNE 03:49:42 29° NNE
CENTAUR R/B 4.2 03:47:26 10° NW 03:54:17 39° NNE 04:01:45 10° E
Cosmos 2333 Rocket 2.6 03:52:04 10° NNW 03:57:46 62° ENE 04:03:24 10° SE
Lacrosse 5 4.2 03:59:41 12° SE 04:01:37 15° ESE 04:04:22 10° E
Meteor 2-14 Rocket 4.2 03:57:17 10° NNW 04:03:22 82° W 04:04:41 57° S
Resurs 1-4 Rocket 1.9 03:59:27 10° NNE 04:04:49 86° WNW 04:05:07 80° SW
Cosmos 1821 Rocket 3.9 04:01:34 10° NNW 04:07:56 79° W 04:10:11 43° S
CZ-4C R/B 3.5 04:02:29 10° NW 04:11:39 37° SSW 04:16:36 10° SSE
NOSS 2-3 (D) 3.9 04:10:33 73° W 04:10:54 77° NW 04:16:56 10° NE
Cosmos 1605 Rocket 4.2 04:06:46 10° N 04:12:54 71° ENE 04:19:05 10° SSE
Cosmos 1934 Rocket 3.9 04:07:20 10° N 04:13:41 85° W 04:17:29 26° S
Cosmos 1238 Rocket 4.3 04:15:15 46° WNW 04:15:29 46° WNW 04:21:58 10° N
Meteor 1-12 Rocket 4.2 04:10:28 10° NNW 04:16:25 69° W 04:17:45 52° SSW
IRAS Rocket 4.2 04:11:09 10° N 04:16:36 60° WNW 04:16:58 58° W
COSMOS 2428 4.3 04:12:04 10° NW 04:14:04 22° NW 04:14:04 22° NW
SL-24 R/B 4.4 04:17:38 33° SSE 04:19:56 80° E 04:24:49 10° N
NOSS 0 Rocket 3.8 04:17:27 10° NNW 04:23:43 84° WSW 04:29:58 10° SSE
CZ-4B R/B 4.2 04:19:08 10° NNE 04:24:15 43° E 04:29:26 10° S
Thor Agena Rocket 4.4 04:20:55 10° SE 04:26:02 52° ENE 04:31:10 10° N
Cosmos 2237 Rocket 2.2 04:21:56 10° NNW 04:27:38 81° ENE 04:33:16 10° SSE
ARGOS Delta rocket 3.8 04:23:31 10° N 04:28:16 66° WNW 04:28:44 62° WSW
Okean O Rocket 2.2 04:25:05 10° NNE 04:29:26 55° E 04:31:35 27° SSE
CZ-2C R/B 3.7 04:25:16 12° SSE 04:29:33 83° ENE 04:34:13 10° NNW
MOZ.5/SAFIR/RUBIN 5/SL-8 3.6 04:28:02 38° S 04:29:52 80° WSW 04:34:39 10° NNW
UNKNOWN OBJECT B 3.1 04:26:15 10° N 04:29:39 58° NNW 04:29:39 58° NNW
IRS-1D 3.9 04:26:20 10° N 04:31:28 47° WNW 04:31:54 46° W
EXPRESS MD2 3.2 04:35:32 60° ESE 04:35:32 60° ESE 04:39:19 10° ESE
Cosmos 1500 4.0 04:32:41 10° NNW 04:35:23 41° NNW 04:35:23 41° NNW
Cosmos 968 Rocket 3.4 04:36:33 51° SW 04:37:47 72° WNW 04:42:56 10° NNE
Okean 1 3.3 04:38:10 66° WNW 04:38:10 66° WNW 04:42:03 10° N
ATLAS 2AS CENTAUR R/B 3.5 04:35:11 33° W 04:38:36 51° NW 04:46:35 10° NE
Cosmos 1536 Rocket 3.9 04:40:44 46° WNW 04:40:44 46° WNW 04:44:41 10° N
Cosmos 1025 Rocket 4.2 04:36:42 10° SSE 04:40:47 42° E 04:44:52 10° NNE
Cosmos 1980 3.6 04:35:08 10° NNW 04:40:50 78° WSW 04:46:31 10° SSE
Cosmos 923 Rocket 3.9 04:35:42 10° NNW 04:41:04 75° WSW 04:46:23 10° SSE
ATLAS 5 CENTAUR R/B 2.3 04:35:24 10° NW 04:41:18 82° SW 04:47:42 10° SE
Uosat 12 SS-18 rocket 4.2 04:41:33 51° WNW 04:42:00 54° NW 04:46:15 10° NE
Cosmos 2219 3.3 04:41:56 43° WSW 04:43:32 60° WNW 04:49:07 10° NNE
Meteor 1-18 Rocket 4.3 04:41:38 40° SW 04:43:37 59° WNW 04:49:21 10° N
Cosmos 1606 Rocket 4.3 04:39:43 10° N 04:44:04 54° ENE 04:48:20 10° SSE
Cosmos 1461 3.0 04:44:19 55° W 04:44:58 64° NW 04:49:16 10° NE
MOS 1-B 4.3 04:39:27 10° N 04:45:12 67° WNW 04:47:51 33° SW
Cosmos 1743 2.6 04:41:45 10° N 04:45:36 84° E 04:49:02 13° S
SL-16 R/B 2.9 04:40:05 10° NNW 04:45:43 55° NE 04:51:17 10° SE
PSLV R/B 3.8 04:47:04 10° NNE 04:51:10 85° WNW 04:52:48 36° SSW
COS B Rocket 4.3 04:54:15 13° SE 04:55:52 26° E 04:57:59 10° NNE
Cosmos 1726 Rocket 4.1 04:51:31 10° N 04:55:55 61° ENE 05:00:14 10° SSE
CZ-4B R/B 3.2 04:52:04 10° NNE 04:56:23 76° ESE 05:00:05 15° S
Cosmos 1812 3.8 04:59:08 30° NW 04:59:08 30° NW 05:02:05 10° N
Okean 1-7 Rocket 3.4 04:56:50 29° SSW 04:59:01 75° W 05:03:28 10° N
SeaSat 1 4.5 04:58:27 10° ESE 05:02:38 29° NE 05:06:51 10° NNW
Cosmos 773 Rocket 4.4 04:58:30 10° NW 05:03:19 38° WSW 05:08:05 10° S
NOSS 3-2 (A) 4.1 04:56:50 10° NW 05:03:58 51° WSW 05:11:37 10° SSE
Cosmos 2227 Rocket 2.5 04:59:04 13° SSW 05:04:08 67° ESE 05:09:47 10° NNE
ADEOS II 3.0 05:00:27 10° NNE 05:05:35 50° E 05:10:41 10° S
ASTRO F (AKARI) 4.1 05:03:40 10° SSE 05:06:49 88° WSW 05:10:05 10° NNW
Cosmos 2219 Rocket 2.7 05:03:33 10° NW 05:08:40 35° WSW 05:13:46 10° S
Cosmos 1892 Rocket 4.4 05:05:10 10° S 05:09:30 52° E 05:13:54 10° NNE
CZ-2D R/B 3.1 05:07:39 10° N 05:12:01 28° WNW 05:13:25 24° W
Cosmos 2297 Rocket 2.7 05:08:22 10° S 05:13:54 59° ESE 05:19:27 10° NE
Lacrosse 5 rocket 1.8 05:12:56 30° W 05:15:02 58° NNW 05:19:26 10° NE
PSLV R/B 3.9 05:11:50 10° NNE 05:16:12 68° ESE 05:20:29 10° S
Okean 2 4.1 05:12:11 10° S 05:16:14 55° E 05:20:19 10° NNE
Meteor 1-15 Rocket 4.3 05:13:19 10° N 05:18:55 82° ENE 05:24:30 10° SSE
CZ-4B DEB 4.1 05:13:45 10° NNE 05:19:15 77° WNW 05:24:44 10° SSW
ARIANE 5 R/B 3.9 05:16:22 10° NNW 05:19:59 20° WNW 05:21:07 18° WNW
Cosmos 1777 Rocket 4.2 05:18:26 21° SW 05:21:46 55° WNW 05:26:58 10° NNE
Cosmos 220 Rocket 4.0 05:17:47 11° SSW 05:21:49 79° ESE 05:26:03 10° NNE
Meteor 1-31 Rocket 4.5 05:18:52 10° NNE 05:22:28 35° E 05:26:04 10° SSE
ERS-2 4.2 05:22:54 10° NNW 05:24:31 13° NW 05:24:31 13° NW
PAYLOAD B 4.2 05:20:21 10° N 05:25:47 62° WNW 05:31:13 10° SSW
Cosmos 2016 Rocket 4.2 05:21:05 10° N 05:27:29 77° E 05:33:47 10° SSE
Cosmos 1727 Rocket 4.1 05:22:09 10° SSW 05:28:17 57° WNW 05:34:32 10° N
Okean-O 2.8 05:24:44 10° NNE 05:29:13 74° ESE 05:33:38 10° S
SL-16 R/B 4.2 05:33:11 12° WNW 05:33:11 12° WNW 05:34:47 10° WNW
Cosmos 2173 Rocket 3.9 05:27:32 10° NNW 05:33:38 75° W 05:39:43 10° S
Cosmos 2228 3.1 05:29:45 10° N 05:34:13 82° E 05:38:36 10° SSE
Cosmos 2112 Rocket 4.4 05:29:26 10° NW 05:34:25 41° WSW 05:39:20 10° S
Cosmos 1680 Rocket 4.1 05:34:56 10° NW 05:39:37 33° WSW 05:44:16 10° SSW
NOSS 3-2 (C) 4.4 05:33:41 10° NW 05:40:30 40° WSW 05:47:47 10° S
Cosmos 2333 Rocket 3.1 05:37:00 10° NW 05:41:38 26° WSW 05:46:12 10° SSW
Cosmos 2058 Rocket 3.0 05:37:25 10° NNW 05:41:45 62° W 05:46:02 10° S
Cosmos 2082 3.7 05:37:02 10° SW 05:42:40 73° WNW 05:48:18 10° NNE
Lacrosse 5 2.2 05:38:55 11° SW 05:43:46 66° SE 05:48:48 10° ENE
Resurs 1-4 Rocket 3.7 05:40:39 10° NNW 05:43:56 17° NW 05:46:11 13° W
Cosmos 1459 Rocket 4.0 05:37:56 10° NNW 05:44:14 63° W 05:50:28 10° S
CENTAUR R/B 3.1 05:38:11 10° NW 05:45:53 88° SW 05:54:11 10° SE
Meteor 1-19 Rocket 4.4 05:43:39 10° SSW 05:49:09 50° WNW 05:54:36 10° N
Aureole 2 Rocket 2.3 05:47:03 10° NNW 05:50:46 73° WSW 05:54:05 10° SSE
ADEOS Rocket 3.4 05:43:33 10° N 05:50:54 64° WNW 05:57:32 10° SSW
Cosmos 2344 4.0 05:46:27 13° WSW 05:53:38 59° NW 06:03:13 10° NE
CZ-4C R/B 4.5 05:57:13 11° WSW 05:57:13 11° WSW 05:58:15 10° WSW
Cosmos 1666 3.5 05:54:40 10° NNW 05:58:05 30° W 06:01:29 10° SSW
Cosmos 2298 Rocket 4.2 05:54:12 10° SSW 05:59:30 83° ESE 06:04:51 10° NNE
Cosmos 2084 3.9 05:57:16 13° WSW 06:00:22 38° NW 06:03:59 10° NNE
Tiangong 1 3.0 05:58:47 10° SW 06:01:04 20° S 06:03:23 10° ESE
COSMO-SKYMED 1 2.8 05:56:45 10° SSE 06:01:05 79° ENE 06:05:27 10° NNW
RESURS DK-1 2.4 05:59:44 10° SW 06:03:50 61° NW 06:07:57 10° NNE
CZ-4B R/B 3.9 05:59:57 10° N 06:04:44 34° WNW 06:09:33 10° SW
Okean O Rocket 3.0 06:02:13 10° NNW 06:05:28 20° WNW 06:08:41 10° WSW
Thor Agena Rocket 4.5 06:01:10 10° SSW 06:05:35 27° W 06:10:03 10° NW
Cosmos 292 Rocket 4.5 06:01:44 10° NW 06:06:02 32° WSW 06:10:20 10° SSW
BREEZE-M DEB (TANK) 2.6 06:04:56 10° WNW 06:07:24 32° SW 06:10:18 10° SSE
USA 129 2.9 06:06:04 10° SSW 06:07:37 19° W 06:09:04 10° NW
NOSS 3-4 (A) 3.7 06:02:00 10° WSW 06:08:21 64° NW 06:15:00 10° NE
NOSS 3-4 (C) 3.7 06:02:06 10° WSW 06:08:28 64° NW 06:15:07 10° NE
Cosmos 2237 Rocket 3.4 06:07:14 10° WNW 06:11:00 18° W 06:14:44 10° SW
Meteor 1-23 Rocket 4.5 06:05:37 10° SSW 06:11:03 49° WNW 06:16:36 10° N
Meteor 2-4 Rocket 4.1 06:06:23 10° SW 06:11:59 46° WNW 06:17:42 10° N
Cosmos 2098 Rocket 3.1 06:10:21 10° NNW 06:13:41 43° W 06:17:47 10° SSW
Cosmos 2150 Rocket 4.0 06:09:35 10° SSW 06:14:44 85° WNW 06:19:56 10° NNE
CZ-4B R/B 3.9 06:13:38 10° N 06:17:39 63° WNW 06:21:29 10° SSW
Cosmos 1025 Rocket 4.3 06:15:08 10° WSW 06:18:35 23° WNW 06:22:02 10° NNW
Cosmos 1340 4.4 06:16:18 10° SSE 06:19:50 39° E 06:23:24 10° NNE
Cosmos 1346 Rocket 3.7 06:16:37 10° SW 06:20:07 30° WNW 06:23:41 10° N
